This demonstration page uses our WeatherBlox Daily Observations layout. Learn more.

Left ArrowRight Arrow

Hourly Observations for May 26, 2022

Temp ( °F °C ) Dew Point ( °F °C ) Humidity (%) Winds ( mph kmh ) Pressure ( in mb ) Visibility ( mi km ) Precip ( " mm )
12:22 am 00:22 Cloudy with Light Rain 52 11.1 50 10 93 93 NW 16 26 29.72 1006 3 5 0.02 0.51
12:53 am 00:53 Cloudy with Light Rain 52 11.1 50 10 93 93 NNW 16 26 29.69 1006 5 8 0.03 0.76
1:46 am 01:46 Cloudy with Light Rain 52 11.1 50 10 93 93 NNW 18 30 29.71 1006 3 5 0.00 0.00
1:53 am 01:53 Cloudy with Light Rain 52 11.1 50 10 93 93 NNW 21 33 29.70 1006 3 5 0.01 0.25
2:11 am 02:11 Cloudy 52 11.1 49 9.4 89 89 NNW 15 24 29.71 1006 10 16 0.00 0.00
2:53 am 02:53 Cloudy 52 11.1 49 9.4 89 89 NNW 14 22 29.70 1006 10 16 0.00 0.00
3:08 am 03:08 Cloudy 52 11.1 49 9.4 89 89 NNW 18 30 29.71 1006 10 16 0.00 0.00
3:53 am 03:53 Cloudy 51 10.6 49 9.4 92 92 NNW 20 31 29.70 1006 10 16 0.00 0.00
4:19 am 04:19 Cloudy with Mist and Fog 51 10.6 49 9.4 92 92 NNW 16 26 29.73 1007 5 8 0.00 0.00
4:50 am 04:50 Cloudy 52 11 48 9 88 88 NNW 18 30 29.74 1007 8 13 0.00 0.00
4:53 am 04:53 Cloudy 51 10.6 49 9.4 92 92 NNW 18 30 29.72 1007 8 13 0.00 0.00
5:53 am 05:53 Cloudy 52 11.1 49 9.4 89 89 NNW 20 31 29.75 1007 10 16 0.00 0.00
6:00 am 06:00 Cloudy 52 11.1 49 9.4 89 89 NNW 20 31 29.76 1008 10 16 0.00 0.00
6:53 am 06:53 Cloudy 52 11.1 49 9.4 89 89 NNW 21 33 29.77 1008 10 16 0.00 0.00
7:53 am 07:53 Cloudy 52 11.1 49 9.4 89 89 NNW 18 30 29.80 1009 10 16 0.00 0.00
8:53 am 08:53 Cloudy with Mist and Fog 52 11.1 50 10 93 93 NNW 18 30 29.83 1010 5 8 0.00 0.00
9:53 am 09:53 Cloudy 53 11.7 49 9.4 86 86 NNW 21 33 29.86 1011 10 16 0.00 0.00
10:53 am 10:53 Cloudy with Light Rain 52 11.1 50 10 93 93 NNW 21 33 29.88 1012 2 3 0.00 0.00
11:02 am 11:02 Cloudy with Light Rain 52 11.1 50 10 93 93 NNW 18 30 29.90 1012 2 3 0.00 0.00
11:44 am 11:44 Cloudy with Mist and Fog 52 11.1 50 10 93 93 NW 17 28 29.92 1013 2 3 0.00 0.00
11:53 am 11:53 Cloudy with Mist and Fog 52 11.1 50 10 93 93 NW 17 28 29.91 1013 2 3 0.00 0.00
12:08 pm 12:08 Cloudy with Mist and Fog 52 11.1 49 9.4 89 89 NNW 23 37 29.92 1013 4 6 0.00 0.00
12:53 pm 12:53 Cloudy 55 12.8 49 9.4 80 80 NNW 20 31 29.92 1013 10 16 0.00 0.00
1:12 pm 13:12 Cloudy 55 12.8 49 9.4 80 80 NNW 18 30 29.93 1013 10 16 0.00 0.00
1:53 pm 13:53 Cloudy 56 13.3 49 9.4 77 77 NNW 21 33 29.93 1013 10 16 0.00 0.00
2:53 pm 14:53 Cloudy 60 15.6 50 10 70 70 NNW 17 28 29.92 1013 10 16 0.00 0.00
3:22 pm 15:22 Partly Cloudy 61 16.1 51 10.6 70 70 NW 15 24 29.91 1013 10 16 0.00 0.00
3:53 pm 15:53 Partly Cloudy 65 18.3 51 10.6 61 61 NNW 22 35 29.92 1013 10 16 0.00 0.00
4:53 pm 16:53 Partly Cloudy 66 18.9 51 10.6 59 59 N 15 24 29.91 1013 10 16 0.00 0.00
5:53 pm 17:53 Mostly Sunny 68 20 52 11.1 57 57 NNW 12 19 29.91 1013 10 16 0.00 0.00
6:53 pm 18:53 Sunny 68 20 50 10 53 53 NNW 15 24 29.91 1013 10 16 0.00 0.00
7:53 pm 19:53 Sunny 67 19.4 51 10.6 57 57 NNW 10 17 29.92 1013 10 16 0.00 0.00
8:53 pm 20:53 Clear 60 15.6 52 11.1 75 75 WNW 3 6 29.94 1014 10 16 0.00 0.00
9:53 pm 21:53 Clear 55 12.8 50 10 83 83 W 6 9 29.95 1014 10 16 0.00 0.00
10:53 pm 22:53 Clear 54 12.2 51 10.6 90 90 W 3 6 29.97 1015 10 16 0.00 0.00
11:53 pm 23:53 Clear 54 12.2 51 10.6 90 90 WNW 5 7 29.96 1014 10 16 0.00 0.00

Powered by AerisWeather